[[[{"header":{"parameterUnit":"kt","parameterCategory":2,"dx":1,"dy":1,"la1":30.253999710083008,"la2":30.299108505249023,"lo1":-89.0895004272461,"lo2":-89.04439544677734,"nx":28,"ny":28,"refTime":"2022-09-20T09:00:00:Z","depth":0,"parameterNumber":1,"parameterNumberName":"U-component_of_WINDS"},"data":[1.8107,1.8097,1.8068,1.8041,1.801,1.7986,1.7968,1.794,1.7909,1.7874,1.7847,1.7813,1.7767,1.7724,1.7691,1.7675,1.7664,1.7684,1.7662,1.7605,1.7595,1.7586,1.7589,1.7681,1.7681,1.7726,1.7727,1.7727,1.8073,1.8044,1.8021,1.7979,1.7958,1.7923,1.7885,1.7869,1.7847,1.7808,1.7779,1.7743,1.7709,1.7654,1.7614,1.7605,1.7585,1.7597,1.7598,1.7591,1.7529,1.7533,1.7615,1.7615,1.7615,1.7615,1.7615,1.7615,1.8004,1.7998,1.7956,1.793,1.79,1.7871,1.7859,1.7818,1.7792,1.7751,1.7716,1.7687,1.7639,1.7573,1.7542,1.7517,1.7496,1.7498,1.7499,1.7502,1.751,1.7456,1.7507,1.7507,1.7507,1.7506,1.7506,0,1.7945,1.7921,1.7896,1.7863,1.7842,1.7811,1.7778,1.7768,1.7702,1.7682,1.7651,1.7626,1.7576,1.7541,1.7494,1.7459,1.7417,1.7407,1.7409,1.7428,1.7453,1.7443,1.7346,1.7405,1.7404,1.7403,1.7403,1.7403,1.7875,1.787,1.781,1.7796,1.7771,1.7748,1.7727,1.7669,1.7649,1.7596,1.7591,1.7554,1.7522,1.7471,1.7417,1.7377,1.7356,1.7383,1.7349,1.7369,1.7359,1.7362,1.7362,1.7392,1.7393,1.7394,1.7395,0,1.7839,1.779,1.7771,1.771,1.7694,1.7691,1.7637,1.7625,1.7584,1.7562,1.7553,1.7488,1.7455,1.7396,1.7343,1.7313,1.7304,1.7282,1.7322,1.7315,1.7336,1.7336,1.7406,1.7413,1.7314,1.7315,1.7315,0,1.7761,1.7755,1.7682,1.7674,1.7665,1.7607,1.7599,1.7563,1.752,1.7502,1.7445,1.7429,1.7355,1.7329,1.7283,1.7264,1.7253,1.7229,1.7218,1.7236,1.7239,1.7223,1.722,1.7187,1.7187,1.7187,1.7187,0,1.7713,1.7664,1.765,1.7631,1.7563,1.7556,1.7527,1.7478,1.7457,1.7419,1.7404,1.7362,1.7339,1.7307,1.725,1.723,1.7224,1.7184,1.72,1.7202,1.7202,1.7203,1.728,1.7186,1.7186,1.7186,1.7186,0,1.7642,1.761,1.7596,1.7538,1.7527,1.7516,1.7474,1.7451,1.7403,1.7375,1.7343,1.7297,1.7274,1.724,1.7206,1.7197,1.7177,1.7151,1.7151,1.7146,1.711,1.7164,1.7241,1.7248,1.7141,1.7141,1.7141,0,1.7602,1.7574,1.7524,1.751,1.7489,1.743,1.7415,1.7374,1.7336,1.731,1.7265,1.7234,1.7195,1.7177,1.7168,1.712,1.7132,1.7115,1.7076,1.7075,1.7095,1.7165,1.7193,1.7231,1.7135,1.7135,1.7136,0,1.7564,1.7483,1.7484,1.746,1.7398,1.7378,1.7361,1.7319,1.7305,1.7262,1.7246,1.7198,1.7168,1.7137,1.7094,1.7088,1.7121,1.7055,1.7052,1.7071,1.7125,1.7153,1.716,1.7093,1.7094,1.7094,1.7131,0,1.7475,1.7452,1.7452,1.7399,1.7374,1.736,1.7301,1.7282,1.7246,1.7205,1.7177,1.7123,1.7075,1.7065,1.7026,1.7031,1.7021,1.6987,1.6949,1.6995,1.7006,1.701,1.6939,1.6938,1.6936,1.6935,0,0,1.7449,1.7417,1.7361,1.7344,1.732,1.7257,1.7248,1.7216,1.7152,1.7136,1.7115,1.704,1.6995,1.6967,1.6977,1.6955,1.6951,1.6936,1.6973,1.6978,1.6982,1.6994,1.7,1.6933,1.6933,1.6932,1.6932,0,1.7405,1.7369,1.7362,1.7327,1.7275,1.7233,1.7231,1.7166,1.7139,1.7111,1.7056,1.703,1.6969,1.6932,1.6904,1.6938,1.6897,1.6927,1.6969,1.6962,1.6969,1.6974,1.6988,1.6994,1.6928,1.6929,1.6929,0,1.736,1.7314,1.7304,1.7247,1.7211,1.7188,1.7136,1.7113,1.7095,1.702,1.6993,1.6954,1.6895,1.6876,1.6864,1.6844,1.6852,1.6835,1.6842,1.6839,1.6829,1.6837,1.6844,1.6755,1.6755,1.6755,0,0,1.7329,1.7308,1.7239,1.7233,1.7214,1.7151,1.7131,1.7093,1.7045,1.7026,1.6975,1.6927,1.6891,1.6868,1.6831,1.6817,1.68,1.6817,1.6825,1.6832,1.6833,1.6826,1.6833,1.6753,1.6753,1.6753,0,0,1.7313,1.7235,1.7207,1.7193,1.7153,1.7081,1.7078,1.7041,1.7002,1.6997,1.6925,1.6909,1.6889,1.6851,1.6843,1.6816,1.678,1.678,1.6842,1.6851,1.6859,1.6869,1.6778,0,0,0,0,0,1.7238,1.7245,1.7221,1.721,1.7134,1.7095,1.7085,1.7029,1.7007,1.7006,1.6957,1.6913,1.6832,1.6824,1.6811,1.6821,1.6738,1.6741,1.6743,1.682,1.683,1.6839,0,0,0,0,0,0,1.7233,1.722,1.7221,1.7151,1.7134,1.7094,1.7044,1.7029,1.7005,1.6998,1.6924,1.6911,1.6859,1.6826,1.6816,1.6826,1.6781,1.6739,1.6742,1.6744,1.6824,1.6832,1.684,0,0,0,0,0,1.7229,1.7218,1.7112,1.715,1.7135,1.7063,1.7043,1.703,1.701,1.6934,1.6919,1.6971,1.6861,1.6848,1.682,1.6832,1.6788,1.6784,1.6741,1.6743,1.6744,1.6828,0,0,0,0,0,0,1.7226,1.7204,1.7107,1.71,1.7144,1.7064,1.705,1.7032,1.6947,1.6933,1.6977,1.6972,1.6862,1.6852,1.6842,1.6838,1.6794,1.679,1.6787,1.6742,1.6744,1.6745,0,0,0,0,0,0,1.7209,1.7199,1.7104,1.7099,1.709,1.7066,1.7053,1.7019,1.6946,1.6994,1.6987,1.6976,1.6875,1.6855,1.6847,1.6796,1.6798,1.6794,1.6792,1.679,1.6743,1.6744,0,0,0,0,0,0,1.7204,1.7194,1.71,1.7094,1.7087,1.7005,1.7033,1.6957,1.6947,1.6998,1.6944,1.6943,1.6879,1.687,1.6851,1.6803,1.6798,1.6798,1.6795,1.6793,1.6792,0,0,0,0,0,0,0,1.7199,1.7276,1.7149,1.709,1.7083,1.7037,1.7035,1.7033,1.6947,1.6946,1.6945,1.6944,1.6818,1.6814,1.681,1.6809,0,0,1.6798,1.6796,0,0,0,0,0,0,0,0,1.7278,1.7276,1.7149,1.7147,1.7146,1.7036,1.7035,1.7033,1.6947,1.6946,1.6945,1.6944,1.6817,1.6814,1.6811,0,0,0,0,0,0,0,0,0,0,0,0,0,0,0,1.7148,1.7147,0,1.7036,1.7035,1.7034,1.6947,1.6946,1.6945,1.6944,1.6816,1.6814,1.6811,0,0,0,0,0,0,0,0,0,0,0,0,0,0,0,0,0,0,0,0,0,0,0,0,0,0,0,0,0,0,0,0,0,0,0,0,0,0,0,0,0,0,0,0,0,0,0,0,0,0,0,0,0,0,0,0,0,0,0,0,0,0,0,0,0,0,0,0,0]}],[{"header":{"parameterUnit":"kt","parameterCategory":2,"dx":1,"dy":1,"la1":30.253999710083008,"la2":30.299108505249023,"lo1":-89.0895004272461,"lo2":-89.04439544677734,"nx":28,"ny":28,"refTime":"2022-09-20T09:00:00:Z","depth":0,"parameterNumber":2,"parameterNumberName":"V-component_of_WINDS"},"data":[-4.6128,-4.6245,-4.6258,-4.6397,-4.6431,-4.6529,-4.6567,-4.6618,-4.6661,-4.6778,-4.6847,-4.687,-4.6917,-4.7001,-4.7076,-4.7084,-4.7116,-4.715,-4.7154,-4.6992,-4.697,-4.6949,-4.6923,-4.7156,-4.7156,-4.7321,-4.7322,-4.7323,-4.6012,-4.6047,-4.6124,-4.6207,-4.6273,-4.6248,-4.6311,-4.6368,-4.6455,-4.6508,-4.6576,-4.6679,-4.6761,-4.6797,-4.6878,-4.6932,-4.6925,-4.6954,-4.695,-4.6958,-4.6785,-4.6757,-4.6959,-4.6959,-4.6959,-4.6959,-4.6959,-4.6959,-4.5804,-4.5873,-4.593,-4.6013,-4.6057,-4.6112,-4.618,-4.6207,-4.6281,-4.6367,-4.6365,-4.6463,-4.6518,-4.6619,-4.6656,-4.6732,-4.6702,-4.6736,-4.6745,-4.6754,-4.6764,-4.653,-4.6746,-4.6745,-4.6745,-4.6744,-4.6744,0,-4.5655,-4.5661,-4.5734,-4.5812,-4.5873,-4.5934,-4.5991,-4.6033,-4.6046,-4.6106,-4.6195,-4.6248,-4.6351,-4.6436,-4.6512,-4.6543,-4.6522,-4.652,-4.6544,-4.6548,-4.6543,-4.6549,-4.6268,-4.6513,-4.6511,-4.651,-4.6509,-4.6508,-4.5448,-4.5526,-4.559,-4.564,-4.5674,-4.5755,-4.5805,-4.5809,-4.5862,-4.5933,-4.5993,-4.6077,-4.6145,-4.6283,-4.6311,-4.6388,-4.6379,-4.6472,-4.639,-4.6391,-4.6382,-4.6379,-4.6387,-4.6488,-4.649,-4.6492,-4.6494,0,-4.533,-4.5347,-4.5472,-4.5527,-4.5543,-4.5625,-4.5671,-4.574,-4.5756,-4.5853,-4.5876,-4.5902,-4.5988,-4.6001,-4.6101,-4.6105,-4.6241,-4.6229,-4.6223,-4.6222,-4.6308,-4.6301,-4.6581,-4.6619,-4.6375,-4.6378,-4.6379,0,-4.516,-4.5263,-4.5283,-4.5354,-4.5469,-4.547,-4.5583,-4.5609,-4.5655,-4.5731,-4.5708,-4.578,-4.5784,-4.5858,-4.5864,-4.5977,-4.5995,-4.6005,-4.6006,-4.6008,-4.6007,-4.6036,-4.6026,-4.6001,-4.6,-4.5998,-4.5997,0,-4.4976,-4.5105,-4.5221,-4.5253,-4.532,-4.5374,-4.5405,-4.5455,-4.5504,-4.5568,-4.56,-4.5674,-4.5715,-4.5773,-4.578,-4.5724,-4.5918,-4.5842,-4.5928,-4.5928,-4.5971,-4.5968,-4.6213,-4.5995,-4.5995,-4.5995,-4.5994,0,-4.4841,-4.4907,-4.5072,-4.5127,-4.5161,-4.5236,-4.5311,-4.5378,-4.5433,-4.5442,-4.5492,-4.5478,-4.5576,-4.5501,-4.5637,-4.5563,-4.5605,-4.5623,-4.5629,-4.564,-4.5556,-4.5694,-4.5924,-4.595,-4.5649,-4.5646,-4.5644,0,-4.4626,-4.4796,-4.4798,-4.4954,-4.5035,-4.5005,-4.5089,-4.5138,-4.5156,-4.5227,-4.5246,-4.5325,-4.5272,-4.5298,-4.5364,-4.5387,-4.5483,-4.5374,-4.5476,-4.548,-4.5465,-4.5676,-4.5708,-4.5872,-4.5607,-4.5611,-4.5613,0,-4.4461,-4.4541,-4.4569,-4.4606,-4.467,-4.4736,-4.4832,-4.4911,-4.4958,-4.5014,-4.5095,-4.5206,-4.5171,-4.5214,-4.5209,-4.5277,-4.5418,-4.5229,-4.5231,-4.5265,-4.5588,-4.5619,-4.5646,-4.54,-4.5405,-4.5408,-4.5584,0,-4.4258,-4.4344,-4.4418,-4.4498,-4.4551,-4.4648,-4.4661,-4.4715,-4.4706,-4.4723,-4.484,-4.4881,-4.496,-4.4993,-4.4984,-4.5134,-4.5111,-4.5072,-4.5,-4.5138,-4.5197,-4.522,-4.4912,-4.491,-4.4909,-4.4907,0,0,-4.4049,-4.4172,-4.417,-4.4263,-4.4307,-4.4274,-4.4377,-4.4416,-4.4495,-4.4526,-4.4486,-4.4648,-4.4683,-4.4824,-4.4868,-4.4899,-4.4927,-4.4878,-4.5072,-4.509,-4.5107,-4.5169,-4.5194,-4.4904,-4.4903,-4.4903,-4.4902,0,-4.3977,-4.4014,-4.4116,-4.4156,-4.4216,-4.4228,-4.4253,-4.4305,-4.4321,-4.4435,-4.4405,-4.4476,-4.4604,-4.4645,-4.4683,-4.4861,-4.4834,-4.4884,-4.4977,-4.5054,-4.5074,-4.5093,-4.5158,-4.5181,-4.4898,-4.4898,-4.4898,0,-4.3818,-4.3858,-4.3907,-4.4006,-4.4044,-4.4126,-4.4054,-4.4143,-4.4204,-4.416,-4.4274,-4.4298,-4.4354,-4.4485,-4.4543,-4.4509,-4.4749,-4.4674,-4.4685,-4.4692,-4.4767,-4.4792,-4.4814,-4.4524,-4.4522,-4.4521,0,0,-4.3755,-4.3834,-4.3876,-4.3991,-4.4017,-4.4036,-4.408,-4.4076,-4.4127,-4.4147,-4.4177,-4.4228,-4.4302,-4.4351,-4.4421,-4.4562,-4.4574,-4.4627,-4.4645,-4.4659,-4.4674,-4.4753,-4.4777,-4.4516,-4.4516,-4.4516,0,0,-4.3724,-4.3778,-4.376,-4.3895,-4.3945,-4.3993,-4.4063,-4.4042,-4.4106,-4.4096,-4.4091,-4.4104,-4.4226,-4.425,-4.4181,-4.4395,-4.4324,-4.434,-4.4375,-4.4398,-4.4415,-4.4407,-4.4112,0,0,0,0,0,-4.3657,-4.3771,-4.3754,-4.3779,-4.3901,-4.4003,-4.4018,-4.4018,-4.3968,-4.4023,-4.4045,-4.4012,-4.4213,-4.4151,-4.4175,-4.4252,-4.445,-4.4462,-4.4473,-4.4551,-4.4575,-4.4594,0,0,0,0,0,0,-4.3666,-4.3696,-4.3751,-4.3804,-4.3832,-4.3999,-4.3914,-4.3917,-4.3962,-4.3954,-4.4009,-4.4014,-4.4015,-4.4139,-4.4161,-4.4234,-4.4105,-4.4455,-4.4465,-4.4474,-4.4559,-4.4578,-4.4595,0,0,0,0,0,-4.3674,-4.3698,-4.3895,-4.3802,-4.3826,-4.3853,-4.391,-4.3912,-4.3946,-4.3979,-4.3983,-4.3941,-4.4017,-4.4035,-4.4152,-4.4224,-4.409,-4.4098,-4.4461,-4.4469,-4.4476,-4.4569,0,0,0,0,0,0,-4.3679,-4.37,-4.3899,-4.3907,-4.3759,-4.3844,-4.3857,-4.3907,-4.3968,-4.3973,-4.3911,-4.3904,-4.402,-4.4033,-4.4047,-4.4221,-4.4078,-4.4086,-4.4091,-4.4467,-4.4473,-4.4479,0,0,0,0,0,0,-4.3687,-4.3706,-4.3903,-4.3848,-4.3849,-4.3835,-4.3847,-4.3945,-4.3969,-4.3896,-4.3892,-4.3907,-4.3998,-4.4032,-4.4043,-4.4197,-4.4069,-4.4077,-4.4082,-4.4085,-4.4472,-4.4477,0,0,0,0,0,0,-4.3695,-4.3712,-4.3846,-4.3847,-4.3848,-4.3929,-4.3922,-4.4047,-4.3924,-4.3894,-4.3912,-4.3907,-4.3999,-4.4009,-4.4041,-4.419,-4.4195,-4.4069,-4.4074,-4.4078,-4.4081,0,0,0,0,0,0,0,-4.3702,-4.3591,-4.3857,-4.3846,-4.3846,-4.3974,-4.3976,-4.3978,-4.3923,-4.3918,-4.3914,-4.3909,-4.4024,-4.4033,-4.4041,-4.4185,0,0,-4.4068,-4.4072,0,0,0,0,0,0,0,0,-4.3584,-4.3589,-4.3857,-4.3859,-4.386,-4.3974,-4.3976,-4.3977,-4.3922,-4.3918,-4.3915,-4.3911,-4.4026,-4.4033,-4.404,0,0,0,0,0,0,0,0,0,0,0,0,0,0,0,-4.3857,-4.3858,0,-4.3974,-4.3976,-4.3977,-4.3921,-4.3918,-4.3915,-4.3912,-4.4028,-4.4034,-4.404,0,0,0,0,0,0,0,0,0,0,0,0,0,0,0,0,0,0,0,0,0,0,0,0,0,0,0,0,0,0,0,0,0,0,0,0,0,0,0,0,0,0,0,0,0,0,0,0,0,0,0,0,0,0,0,0,0,0,0,0,0,0,0,0,0,0,0,0,0]}]]]